Wind_Speed
10 12 13 12 11 10 10 10 11 13 15 17 18 18 18 18 17 17 16 16 16 16 17 17 16 15 14 14 14 15 14 13
12 13 13 13 12 11 11 10 11 12 14 15 16 18 18 19 21 19 20 18 17 17 17 18 19 19 18 17 16 15 16 14
13 13 12 12 11 8 7 8 9 10 11 13 15 17 18 19 21 21 21 21 21 21 20 20 20 19 21 22 21 19 17 16
12 11 11 10 9 7 8 9 9 10 10 11 12 14 16 19 20 21 23 23 23 23 24 24 24 22 22 23 24 23 23 20
10 8 8 8 9 8 8 10 11 12 14 13 13 12 13 15 17 20 22 23 23 24 23 25 26 26 25 24 25 25 24 23
9 8 7 7 9 8 8 8 10 12 12 14 15 15 15 15 16 18 20 22 23 24 26 26 29 28 28 28 27 29 29 27
10 9 8 6 8 12 11 11 11 12 13 13 14 14 15 16 18 20 21 22 24 25 26 27 29 30 29 29 31 33 33 33
12 12 11 11 10 11 13 14 14 14 15 15 15 16 15 16 17 20 22 23 25 27 28 29 30 31 31 32 30 30 34 36
14 14 14 14 15 17 17 16 16 17 18 17 17 18 17 17 18 20 22 24 26 28 28 29 30 32 33 33 36 36 33 35
16 16 15 17 19 21 21 20 19 20 20 20 19 19 19 19 20 22 23 25 27 28 29 30 32 33 34 33 35 37 40 43
19 18 17 19 21 24 25 24 23 23 24 24 22 22 23 23 23 24 25 26 28 29 30 32 33 33 34 36 35 37 40 43
22 21 21 22 24 25 26 26 25 25 25 25 24 24 25 26 27 28 28 28 30 32 33 32 34 34 34 36 37 38 40 43
25 25 25 25 25 27 27 26 25 24 23 23 24 25 26 27 28 30 30 31 31 33 34 34 33 34 36 37 37 37 41 44
28 28 29 27 27 26 26 24 25 23 23 24 25 27 28 30 29 30 32 33 33 35 36 36 35 33 36 36 39 40 42 46
31 31 30 28 27 25 24 24 24 24 25 26 27 29 30 31 31 31 33 34 34 35 36 37 38 34 35 37 38 39 40 36
34 32 29 27 25 23 22 23 23 24 25 26 27 29 31 32 33 34 33 34 35 35 35 36 37 37 34 34 34 37 38 41
33 32 30 26 24 23 22 22 22 23 25 27 29 30 32 33 34 36 36 35 35 36 36 35 36 38 35 34 33 34 38 40
33 31 29 26 24 23 21 22 24 26 28 30 31 32 33 34 35 36 37 37 36 36 36 36 36 37 35 34 35 34 36 41
32 30 27 25 24 23 23 25 28 29 31 32 34 36 36 37 36 36 37 37 37 38 38 36 37 37 37 36 36 34 36 41
28 25 24 23 24 24 26 27 28 30 34 37 38 38 38 38 38 37 38 37 38 39 40 39 38 37 38 39 38 35 33 38
Wind_Direction
316 312 310 307 306 300 294 290 287 282 278 277 277 277 278 279 279 280 285 289 292 295 296 299 298 297 299 302 307 309 306 297
305 312 315 315 312 313 314 310 301 292 287 284 281 278 279 278 279 283 282 282 283 286 288 290 293 295 295 293 295 301 303 300
303 313 319 319 319 325 326 328 323 313 301 289 283 281 280 282 281 283 280 279 280 281 280 280 282 286 291 292 292 292 293 299
302 312 314 313 318 333 341 340 341 337 326 309 295 289 285 280 281 279 280 281 281 278 278 279 279 279 281 280 284 286 291 292
295 306 305 295 292 304 321 330 335 331 329 327 320 308 296 290 287 283 281 278 278 279 279 277 276 276 275 279 283 282 283 287
273 283 299 282 266 274 306 317 331 330 332 330 323 318 312 304 296 290 289 287 287 279 277 276 277 279 272 275 269 277 284 283
262 275 287 291 280 270 288 305 320 324 327 325 321 311 302 297 295 294 293 291 288 285 282 276 273 271 270 273 271 272 274 277
262 275 286 291 289 285 285 294 305 311 314 316 315 312 305 297 292 289 286 284 283 282 282 280 276 273 270 268 268 273 274 272
262 271 282 289 287 287 290 295 299 303 307 310 313 313 308 302 295 289 288 287 286 285 284 282 281 279 275 269 268 262 262 267
259 270 280 290 292 291 294 299 300 304 307 310 308 310 313 308 301 296 292 287 284 282 282 281 282 281 279 276 273 272 269 263
258 271 283 290 296 294 295 299 303 306 307 307 305 308 313 312 305 299 293 289 285 283 283 284 283 281 280 278 277 274 272 271
260 270 280 288 295 298 297 298 303 306 305 302 302 309 312 312 307 301 296 292 288 286 286 286 285 282 279 279 279 278 273 271
261 271 279 284 291 297 298 299 301 303 303 301 305 309 311 310 307 301 297 293 291 289 287 286 284 283 283 282 285 288 283 274
262 271 278 282 289 293 297 299 300 300 299 301 307 310 311 309 304 301 299 296 294 292 289 288 288 289 289 287 291 290 287 278
264 272 278 283 288 294 296 297 298 297 302 306 309 310 308 306 303 298 295 294 293 290 290 292 291 293 294 295 297 290 286 277
264 271 278 283 289 293 294 292 290 295 301 305 306 305 303 301 297 295 294 294 293 292 290 291 290 293 296 295 292 287 281 279
267 274 279 285 289 290 289 286 293 299 303 304 304 303 302 298 295 292 293 293 293 292 292 292 292 292 293 292 287 277 272 276
268 275 280 284 283 287 287 294 300 304 305 305 304 303 300 295 291 290 288 288 290 291 292 291 290 290 292 291 288 280 271 268
270 273 277 279 281 288 292 299 303 306 306 306 306 304 299 295 289 286 286 288 289 290 290 292 291 290 288 288 286 287 279 270
266 269 271 275 283 285 293 298 301 305 307 307 305 302 298 295 292 289 288 289 289 289 290 291 289 289 288 286 286 285 287 275
Height
3147 3146 3145 3144 3143 3141 3140 3139 3139 3138 3138 3137 3137 3137 3136 3136 3136 3136 3136 3135 3135 3134 3134 3133 3132 3131 3129 3128 3127 3126 3125 3125
3144 3143 3142 3142 3142 3140 3139 3138 3137 3136 3136 3135 3135 3134 3134 3133 3132 3133 3132 3132 3131 3131 3131 3130 3129 3128 3128 3126 3125 3124 3122 3122
3142 3141 3141 3140 3139 3138 3137 3136 3135 3134 3133 3132 3132 3131 3130 3130 3128 3128 3128 3128 3127 3127 3126 3125 3124 3125 3124 3124 3123 3122 3120 3119
3140 3139 3138 3138 3137 3136 3135 3134 3133 3132 3130 3129 3128 3127 3126 3125 3125 3124 3123 3123 3124 3123 3123 3122 3121 3120 3120 3119 3119 3119 3118 3117
3137 3137 3136 3135 3135 3134 3134 3133 3131 3130 3128 3126 3125 3124 3123 3122 3121 3120 3119 3118 3118 3117 3118 3117 3116 3116 3115 3114 3114 3113 3113 3113
3135 3134 3134 3133 3133 3132 3131 3130 3128 3127 3125 3124 3122 3121 3119 3118 3117 3116 3116 3114 3113 3113 3112 3112 3112 3112 3112 3110 3110 3109 3108 3109
3133 3132 3132 3131 3131 3130 3129 3127 3125 3124 3122 3121 3119 3117 3116 3114 3113 3112 3111 3110 3109 3108 3108 3107 3106 3106 3106 3106 3105 3105 3104 3103
3130 3130 3129 3129 3128 3127 3126 3125 3122 3120 3119 3117 3116 3114 3113 3111 3109 3108 3106 3106 3104 3103 3102 3101 3100 3099 3099 3099 3099 3100 3099 3097
3127 3127 3126 3126 3125 3124 3122 3121 3119 3117 3116 3114 3112 3111 3109 3107 3104 3103 3101 3100 3098 3097 3096 3094 3093 3092 3091 3091 3091 3091 3092 3091
3124 3124 3123 3122 3121 3120 3118 3116 3114 3112 3110 3109 3108 3107 3105 3102 3100 3098 3096 3094 3092 3091 3089 3088 3086 3085 3085 3084 3083 3082 3083 3084
3119 3120 3119 3118 3117 3116 3113 3111 3108 3106 3104 3103 3103 3101 3098 3095 3093 3091 3090 3088 3086 3084 3082 3080 3079 3078 3076 3076 3075 3074 3073 3073
3114 3114 3114 3113 3112 3110 3108 3106 3103 3101 3099 3097 3096 3093 3092 3089 3087 3085 3083 3081 3079 3077 3074 3073 3071 3070 3068 3067 3065 3064 3063 3062
3108 3109 3108 3108 3106 3104 3102 3101 3099 3097 3095 3093 3090 3088 3085 3082 3080 3078 3076 3074 3071 3069 3067 3065 3064 3062 3058 3057 3055 3054 3053 3052
3102 3103 3102 3102 3100 3099 3096 3095 3094 3092 3091 3088 3085 3082 3079 3076 3074 3071 3069 3067 3064 3061 3059 3056 3055 3053 3050 3047 3043 3044 3043 3038
3096 3097 3096 3096 3095 3093 3091 3090 3089 3087 3085 3082 3078 3075 3073 3069 3067 3064 3062 3059 3058 3055 3051 3048 3044 3045 3041 3038 3034 3033 3030 3033
3090 3090 3090 3090 3089 3087 3086 3084 3084 3082 3079 3076 3073 3070 3067 3064 3061 3058 3055 3052 3050 3047 3044 3041 3037 3034 3033 3030 3027 3025 3021 3019
3082 3082 3082 3082 3082 3082 3080 3079 3078 3076 3074 3071 3068 3065 3061 3057 3054 3051 3048 3045 3042 3039 3036 3033 3029 3026 3025 3023 3020 3018 3016 3013
3075 3075 3076 3076 3076 3075 3073 3072 3071 3068 3066 3064 3061 3058 3055 3052 3048 3044 3041 3037 3034 3031 3028 3025 3021 3018 3015 3014 3011 3009 3009 3007
3069 3069 3069 3070 3069 3068 3067 3065 3064 3061 3059 3056 3053 3050 3046 3042 3039 3036 3032 3029 3025 3022 3019 3016 3012 3009 3007 3005 3002 2998 2998 2995
3063 3063 3064 3064 3063 3062 3060 3059 3056 3054 3050 3048 3044 3040 3037 3034 3030 3026 3022 3019 3015 3013 3010 3006 3003 3001 2998 2995 2991 2988 2988 2986